Aduana, Mexico

6:45 PM on February 27, 2017 (GMT +0000)
Cancun International

Weather History for MMUN - November, 2012

Change the Weather History Date:

Thursday, November 29, 2012

  Actual Average Record
Temperature  
Mean Temperature 72 °F -  
Max Temperature 80 °F 81 °F 93 °F (2004)
Min Temperature 64 °F 65 °F 53 °F (2011)
Cooling Degree Days 7    
Growing Degree Days 22 (Base 50)    
Moisture  
Dew Point 64 °F    
Average Humidity 78    
Maximum Humidity 94    
Minimum Humidity 54    
Precipitation  
Precipitation 0.00 in - - ()
Sea Level Pressure  
Sea Level Pressure 30.10 in    
Wind  
Wind Speed 4 mph ()    
Max Wind Speed 14 mph    
Max Gust Speed -    
Visibility 7.0 miles    
Events      
Averages and records for this station are not official NWS values.
T = Trace of Precipitation, MM = Missing Value Source: Averaged Metar Reports

Daily Weather History Graph

Daily Weather History Graph

Search for Another Location

Airport or City:

Trip Planner

Search our weather history database for the weather conditions in past years. The results will help you decide how hot, cold, wet, or windy it might be!

Date:

Astronomy

Nov. 29, 2012 Rise Set
Actual Time 6:07 AM CST 5:04 PM CST
Civil Twilight 5:43 AM CST 5:28 PM CST
Nautical Twilight 5:15 AM CST 5:56 PM CST
Astronomical Twilight 4:48 AM CST 6:23 PM CST
Moon 6:07 PM CST (11/29) 6:52 AM CST (11/29)
Length of Visible Light 11h 45m
Length of Day
10h 57m
Full, 99% of the Moon is Illuminated
Nov 29
Full
Dec 6
Last Quarter
Dec 13
New
Dec 19
First Quarter
Dec 28
Full

Hourly Weather History & Observations

Time (CST) Temp. Heat Index Dew Point Humidity Pressure Visibility Wind Dir Wind Speed Gust Speed Precip Events Conditions
12:40 AM 66.2 °F - 62.6 °F 88% 30.11 in 7.0 mi NW 2.3 mph - N/A   Partly Cloudy
1:46 AM 66.2 °F - 62.6 °F 88% 30.10 in 7.0 mi NW 4.6 mph - N/A   Partly Cloudy
2:46 AM 66.2 °F - 62.6 °F 88% 30.11 in 7.0 mi NW 3.5 mph - N/A   Partly Cloudy
3:45 AM 64.4 °F - 62.6 °F 94% 30.09 in 7.0 mi NW 3.5 mph - N/A   Partly Cloudy
4:45 AM 64.4 °F - 62.6 °F 94% 30.08 in 7.0 mi NW 2.3 mph - N/A   Partly Cloudy
5:46 AM 66.2 °F - 64.4 °F 94% 30.11 in 7.0 mi Calm Calm - N/A   Scattered Clouds
6:43 AM 66.2 °F - 64.4 °F 94% 30.11 in 7.0 mi NW 2.3 mph - N/A   Mostly Cloudy
7:41 AM 71.6 °F - 68.0 °F 88% 30.13 in 7.0 mi North 2.3 mph - N/A   Mostly Cloudy
8:45 AM 78.8 °F - 64.4 °F 61% 30.14 in 7.0 mi East 4.6 mph - N/A   Mostly Cloudy
9:40 AM 78.8 °F - 62.6 °F 57% 30.15 in 7.0 mi East 13.8 mph - N/A   Mostly Cloudy
10:42 AM 80.6 °F 81.8 °F 62.6 °F 54% 30.14 in 7.0 mi East 12.7 mph - N/A   Mostly Cloudy
11:49 AM 77.0 °F - 68.0 °F 74% 30.13 in 7.0 mi Calm Calm - N/A   Overcast
12:47 PM 78.8 °F - 66.2 °F 65% 30.10 in 7.0 mi NE 6.9 mph - N/A   Overcast
1:49 PM 80.6 °F 82.3 °F 64.4 °F 58% 30.08 in 7.0 mi ENE 8.1 mph - N/A   Mostly Cloudy
2:40 PM 78.8 °F - 64.4 °F 61% 30.07 in 7.0 mi NNE 6.9 mph - N/A   Mostly Cloudy
3:47 PM 78.8 °F - 64.4 °F 61% 30.06 in 7.0 mi ENE 6.9 mph - N/A   Mostly Cloudy
4:44 PM 77.0 °F - 64.4 °F 65% 30.06 in 7.0 mi ENE 3.5 mph - N/A   Mostly Cloudy
5:47 PM 73.4 °F - 66.2 °F 78% 30.07 in 7.0 mi NNE 2.3 mph - N/A   Mostly Cloudy
6:42 PM 73.4 °F - 64.4 °F 73% 30.09 in 7.0 mi ENE 3.5 mph - N/A   Scattered Clouds
7:46 PM 71.6 °F - 64.4 °F 78% 30.11 in 7.0 mi NE 2.3 mph - N/A   Clear
8:43 PM 71.6 °F - 64.4 °F 78% 30.11 in 7.0 mi ENE 2.3 mph - N/A   Clear
9:46 PM 66.2 °F - 64.4 °F 94% 30.12 in 7.0 mi Calm Calm - N/A   Clear
10:50 PM 66.2 °F - 64.4 °F 94% 30.12 in 7.0 mi NNW 2.3 mph - N/A   Clear
11:45 PM 66.2 °F - 64.4 °F 94% 30.10 in 7.0 mi NW 3.5 mph - N/A   Clear